Run Index — Frost Fatales 2020

← Awesome Games Done Quick 2020
Event List
Corona Relief Done Quick →
Name Players Description Start Time End Time Bid Wars
Pre-Show Introduction Kungfufruitcup, Lena Alfi 2020-02-23T12:24:00-05:00 2020-02-23T12:32:00-05:00 No
Ape Escape 3 any% Beuchi 2020-02-23T12:32:00-05:00 2020-02-23T14:09:40-05:00 No
Hollow Knight All Skills emray 2020-02-23T14:09:40-05:00 2020-02-23T15:39:00-05:00 No
Portal Inbounds Kojlax 2020-02-23T15:39:00-05:00 2020-02-23T16:00:00-05:00 No
Portal 2 Single Player Inbounds royalpeaches 2020-02-23T16:00:00-05:00 2020-02-23T17:52:54-05:00 Yes
Super Mario Sunshine 120 Shines Claire 2020-02-23T17:52:54-05:00 2020-02-23T21:38:03-05:00 No
Donkey Kong Country any% AngieYuna 2020-02-23T21:38:03-05:00 2020-02-23T22:06:45-05:00 Yes
Mega Man X Any% (Buster Only) DMP 2020-02-23T22:06:45-05:00 2020-02-23T23:16:29-05:00 No
Gregory Horror Show any% Normal Mode Pa-Sama 2020-02-23T23:16:29-05:00 2020-02-24T00:38:32-05:00 Yes
Dungeon Dice Monsters any% (Division 1) leggystarscream 2020-02-24T00:38:32-05:00 2020-02-24T03:13:17-05:00 Yes
A Link to the Past Mystery Randomizer ZoeVermilion 2020-02-24T03:13:17-05:00 2020-02-24T06:33:04-05:00 Yes
Yu-Gi-Oh! Dark Duel Stories any% Nicky 2020-02-24T06:33:04-05:00 2020-02-24T10:42:12-05:00 No
Earthbound any% glitchless Ria Skies 2020-02-24T10:42:12-05:00 2020-02-24T15:23:16-05:00 Yes
Spyro Reignited Trilogy: Spyro 1 80 Dragons SableDragonRook 2020-02-24T15:23:16-05:00 2020-02-24T17:00:31-05:00 Yes
Kirby's Adventure any% No Abilities AirAngel 2020-02-24T17:00:31-05:00 2020-02-24T18:29:05-05:00 No
Kirby and the Amazing Mirror any% Darksol88 2020-02-24T18:29:05-05:00 2020-02-24T19:15:07-05:00 No
Kirby Star Allies Guest Star - Mage Sisters LaurieDBunnykins 2020-02-24T19:15:07-05:00 2020-02-24T20:01:38-05:00 No
Octopath Traveler Ophilia/Cyrus/Tressa/Olberic/Primrose/Alfyn/Therion/H'aanit LaurieDBunnykins 2020-02-24T20:01:38-05:00 2020-02-24T21:41:40-05:00 Yes
The Legend of Zelda any% Tetra 2020-02-24T21:41:40-05:00 2020-02-24T22:25:26-05:00 No
The Legend of Zelda Randomizer Consternation Flags Race Demerine2, Skybilz 2020-02-24T22:25:26-05:00 2020-02-24T23:59:13-05:00 Yes
Cadence of Hyrule Story Mode, any% Kailaria 2020-02-24T23:59:13-05:00 2020-02-25T00:30:13-05:00 Yes
Beatmania IIDX Song Showcase Sparkover 2020-02-25T00:30:13-05:00 2020-02-25T01:12:13-05:00 Yes
Gitaroo Man Master Mode GarbitheGlitcheress 2020-02-25T01:12:13-05:00 2020-02-25T02:19:13-05:00 No
Sly Cooper and the Thievius Raccoonus any% Cinderkit5 2020-02-25T02:19:13-05:00 2020-02-25T03:28:13-05:00 Yes
The Last Guardian any% SableDragonRook 2020-02-25T03:28:13-05:00 2020-02-25T07:13:11-05:00 No
Final Fantasy Tactics A2: Grimoire of the Rift any% Nicky 2020-02-25T07:13:11-05:00 2020-02-25T11:59:59-05:00 Yes
Super Mario Bros. 2 Princess-only any% CrustaceanSeven 2020-02-25T11:59:59-05:00 2020-02-25T12:24:59-05:00 No
The Ottifants any% (Easy) GarbitheGlitcheress 2020-02-25T12:24:59-05:00 2020-02-25T13:04:59-05:00 No
Vanguard Bandits Any% Empire Route - Cecilia Ending SchalaKitty 2020-02-25T13:04:59-05:00 2020-02-25T16:11:29-05:00 Yes
Youyou Kengeki Musou Main Story 100% rythin 2020-02-25T16:11:29-05:00 2020-02-25T16:43:00-05:00 No
else Heart.Break() any% Prigtopia 2020-02-25T16:43:00-05:00 2020-02-25T16:56:00-05:00 Yes
Minit any% Normal Myst_Thea 2020-02-25T16:56:00-05:00 2020-02-25T17:10:00-05:00 Yes
Another Perspective Story No Wrong Wrap Myst_Thea 2020-02-25T17:10:00-05:00 2020-02-25T17:30:00-05:00 No
Cocoron Any% Karma_Dragoness 2020-02-25T17:30:00-05:00 2020-02-25T17:54:00-05:00 Yes
Hyper Light Drifter New Game - NMG LaurieDBunnykins 2020-02-25T17:54:00-05:00 2020-02-25T18:45:00-05:00 No
The Battle of Olympus Infinite Olives% Karma_Dragoness 2020-02-25T18:45:00-05:00 2020-02-25T19:14:00-05:00 Yes
The Immortal any% Karma_Dragoness 2020-02-25T19:14:00-05:00 2020-02-25T19:33:19-05:00 Yes
The Legend of Zelda any% Second Quest Tetra 2020-02-25T19:33:19-05:00 2020-02-25T20:32:47-05:00 No
Final Fantasy VIII any% Soph 2020-02-25T20:32:47-05:00 2020-02-26T05:12:31-05:00 Yes
Sonic Robo Blast 2 Kart Map Rotation Original Tracks AeonFrodo 2020-02-26T05:12:31-05:00 2020-02-26T06:52:31-05:00 Yes
Chulip Any% Pa-Sama 2020-02-26T06:52:31-05:00 2020-02-26T09:01:51-05:00 Yes
Azure Striker Gunvolt 2 Good Ending tinahacks 2020-02-26T09:01:51-05:00 2020-02-26T11:27:09-05:00 No
Learning with Liz Preview Ristar 100% Lizstar 2020-02-26T11:27:09-05:00 2020-02-26T12:26:09-05:00 No
Bongo TAS Showcase Lizstar 2020-02-26T12:26:09-05:00 2020-02-26T13:05:00-05:00 Yes
Spelunky All Shortcuts + Olmec Kirby703 2020-02-26T13:05:00-05:00 2020-02-26T13:42:00-05:00 No
Tetris Effect Journey (Expert) Kirby703 2020-02-26T13:42:00-05:00 2020-02-26T14:43:00-05:00 No
Buck Bumble Any% No Door Skips UndeadBlackBird 2020-02-26T14:43:00-05:00 2020-02-26T15:35:00-05:00 No
Yo! Noid 2: Game of a Year Edition All Stages rythin 2020-02-26T15:35:00-05:00 2020-02-26T15:54:00-05:00 Yes
We Love Katamari Roll Up the Sun GarbitheGlitcheress 2020-02-26T15:54:00-05:00 2020-02-26T17:15:00-05:00 Yes
The Simpsons: Bart's House of Weirdness any% GliitchWiitch 2020-02-26T17:15:00-05:00 2020-02-26T17:40:00-05:00 No
Space Mouse 1 Loop ZandraVandra 2020-02-26T17:40:00-05:00 2020-02-26T18:10:00-05:00 Yes
Cosmo Tank Beat the Game ZandraVandra 2020-02-26T18:10:00-05:00 2020-02-26T19:01:00-05:00 No
Saint Hazel's Horsepital Horsin' Around KatLink 2020-02-26T19:01:00-05:00 2020-02-26T19:38:00-05:00 No
Legend of Zelda: A Link to the Past All Dungeons (Restricted Major Glitches) kelpsey 2020-02-26T19:38:00-05:00 2020-02-26T21:13:30-05:00 Yes
Splatterhouse: Wanpaku Graffiti True Ending AirAngel 2020-02-26T21:13:30-05:00 2020-02-26T21:48:22-05:00 No
Super Locomotive Score Showcase Lizstar 2020-02-26T21:48:22-05:00 2020-02-26T22:34:56-05:00 No
Mega Man 3: The Robots Are Revolting any% Lizstar 2020-02-26T22:34:56-05:00 2020-02-26T23:14:30-05:00 Yes
Tomb Raider: The Angel of Darkness any% Beckski 2020-02-26T23:14:30-05:00 2020-02-26T23:45:30-05:00 No
Weird Dreams All Dreams% GliitchWiitch 2020-02-26T23:45:30-05:00 2020-02-27T00:11:30-05:00 No
Final Fantasy XII any% (PC) Nicky 2020-02-27T00:11:30-05:00 2020-02-27T03:42:30-05:00 No
Spyro: Year of the Dragon 100 Egg Becci_chan 2020-02-27T03:42:30-05:00 2020-02-27T05:29:27-05:00 No
Dragon Warrior Randomizer Standard Flags Demerine2 2020-02-27T05:29:27-05:00 2020-02-27T08:01:18-05:00 Yes
Legend of Legaia any% NG+ Ria Skies 2020-02-27T08:01:18-05:00 2020-02-27T12:50:00-05:00 Yes
Sonic Chaos Tails Beat The Game flying fox 2020-02-27T12:50:00-05:00 2020-02-27T13:33:00-05:00 No
Classic Sonic Trilogy Sonic, No Major Glitches flying fox 2020-02-27T13:33:00-05:00 2020-02-27T15:58:00-05:00 No
Jazz Jackrabbit 2 Lori episodes 1-4 TreyLina 2020-02-27T15:58:00-05:00 2020-02-27T16:31:00-05:00 No
Sonic Mania Knuckles - Good Ending Ailis 2020-02-27T16:31:00-05:00 2020-02-27T17:42:00-05:00 Yes
Untitled Goose Game any% glitchless Amethyst 2020-02-27T17:42:00-05:00 2020-02-27T18:12:00-05:00 Yes
Undertale TPE Glitchless LaurieDBunnykins 2020-02-27T18:12:00-05:00 2020-02-27T20:19:00-05:00 Yes
Pokemon Snap any% MrsCandyria 2020-02-27T20:19:00-05:00 2020-02-27T20:49:00-05:00 Yes
Odin Sphere Leifthrasir Easy any% | Gwendolyn vs Mercedes vs Velvet Demerine2 2020-02-27T20:49:00-05:00 2020-02-27T21:55:00-05:00 Yes
Puzzle Agent All Puzzles rinimt 2020-02-27T21:55:00-05:00 2020-02-27T22:40:00-05:00 No
Evergate any% controller emray 2020-02-27T22:40:00-05:00 2020-02-27T23:27:00-05:00 No
Yoshi's Woolly World any% Rhysma 2020-02-27T23:27:00-05:00 2020-02-28T01:13:33-05:00 No
Shantae and the Pirate's Curse any% tinahacks 2020-02-28T01:13:33-05:00 2020-02-28T02:14:33-05:00 No
Wonderboy: The Dragon's Trap any% tinahacks 2020-02-28T02:14:33-05:00 2020-02-28T03:01:33-05:00 No
Shantae Risky's Revenge any% tinahacks 2020-02-28T03:01:33-05:00 2020-02-28T03:39:33-05:00 No
Legaia 2: Duel Saga any% Ria Skies 2020-02-28T03:39:33-05:00 2020-02-28T09:54:33-05:00 Yes
Overclocked Any% TreyLina 2020-02-28T09:54:33-05:00 2020-02-28T10:50:33-05:00 No
Learning with Liz Learning% Lizstar and onsite Friends 2020-02-28T10:50:33-05:00 2020-02-28T14:41:33-05:00 Yes
Final Fantasy IV noCW (QoL Mod) Netara 2020-02-28T14:41:33-05:00 2020-02-28T16:55:33-05:00 Yes
Super Mario Odyssey any% kelpsey 2020-02-28T16:55:33-05:00 2020-02-28T18:26:33-05:00 No
Super Mario Land 2 any% glitchless pidgezero_one 2020-02-28T18:26:33-05:00 2020-02-28T19:05:33-05:00 No
Donkey Kong Country 2 any% crismas 2020-02-28T19:05:33-05:00 2020-02-28T20:10:33-05:00 No
Pokemon Crystal Randomizer Coop Blackout Bingo ZoeVermilion, dijonketchup, leggystarscream 2020-02-28T20:10:33-05:00 2020-02-28T22:36:43-05:00 Yes
Chocobo Racing Story Mode kariohki 2020-02-28T22:36:43-05:00 2020-02-28T23:07:16-05:00 Yes
Codename Kids Next Door - Operation: V.I.D.E.O.G.A.M.E. Any% StebMcDreb 2020-02-28T23:07:16-05:00 2020-02-29T01:41:34-05:00 No
Barbie: Magic Genie Adventure any% ZoeVermilion 2020-02-29T01:41:34-05:00 2020-02-29T01:58:35-05:00 Yes
Buzz Lightyear of Star Command New Game+ All Bosses StebMcDreb 2020-02-29T01:58:35-05:00 2020-02-29T02:44:38-05:00 No
The Lion King any% Easy Nichole Goodnight 2020-02-29T02:44:38-05:00 2020-02-29T03:10:03-05:00 No
Disney's 102 Dalmatians: Puppies to the Rescue All Levels (Out of Bounds, PC) passere 2020-02-29T03:10:03-05:00 2020-02-29T03:42:39-05:00 Yes
Fatty Bear's Birthday Surprise any% UndeadBlackBird 2020-02-29T03:42:39-05:00 2020-02-29T03:54:19-05:00 No
Looney Tunes (GB) All Levels WinnerBit 2020-02-29T03:54:19-05:00 2020-02-29T04:16:22-05:00 No
DuckTales Remastered any% dijonketchup 2020-02-29T04:16:22-05:00 2020-02-29T05:07:16-05:00 Yes
Frogger's Adventures: Temple of the Frog any% WinnerBit 2020-02-29T05:07:16-05:00 2020-02-29T05:37:48-05:00 Yes
Frogger's Adventures 2: The Lost Wand any% WinnerBit 2020-02-29T05:37:48-05:00 2020-02-29T06:22:03-05:00 No
The Legend of Zelda: Ocarina of Time Medallions, Stones, Trials (MST) Hyphlopod 2020-02-29T06:22:03-05:00 2020-02-29T08:49:00-05:00 Yes
Super Mario SMRPG any% pidgezero_one 2020-02-29T08:49:00-05:00 2020-02-29T11:57:10-05:00 No
Momodora: Reverie Under the Moonlight AVIB (Normal) LaurieDBunnykins 2020-02-29T11:57:10-05:00 2020-02-29T12:47:10-05:00 No
The Legend of Zelda: A Link to the Past Randomizer, Multiworld Co-op ChelseyxLynn, EmoSaru 2020-02-29T12:47:10-05:00 2020-02-29T15:26:20-05:00 Yes
The Elder Scrolls IV: Oblivion No OoB Ellieceraptor 2020-02-29T15:26:20-05:00 2020-02-29T16:21:25-05:00 No
Super Metroid any% KPDR FreyasSpirit 2020-02-29T16:21:25-05:00 2020-02-29T17:33:57-05:00 Yes
Pokemon Shield any% emray 2020-02-29T17:33:57-05:00 2020-02-29T22:18:57-05:00 Yes
Finale The End Tech Crew 2020-02-29T22:18:57-05:00 2020-02-29T22:38:58-05:00 No

Back to Main Index

Running on Django with Python
Python code by UraniumAnchor, SMK, and jdeng
CSS by Cool Matty